| time (UTC) | temp C | wind direction | speed KPH | gust KPH | rain 1hr cm | rain 24hr cm | rain mn cm | humidity % | barometer mb |
| 20260831092524 | 17 | 231 | 8.0 | 12.9 | 0.00 | 4.95 | 3.56 | 69 | 974.8 |
| 20260831092028 | 17 | 233 | 4.8 | 11.3 | 0.00 | 4.95 | 3.56 | 69 | 974.9 |
| 20260831091524 | 17 | 240 | 1.6 | 11.3 | 0.00 | 4.95 | 3.56 | 69 | 974.9 |
| 20260831091024 | 17 | 227 | 3.2 | 12.9 | 0.00 | 4.95 | 3.56 | 69 | 975.0 |
| 20260831090523 | 17 | 232 | 3.2 | 12.9 | 0.00 | 4.95 | 3.56 | 69 | 975.0 |
| 20260831090026 | 17 | 230 | 6.4 | 16.1 | 0.00 | 4.95 | 3.56 | 69 | 975.0 |
| 20260831085524 | 17 | 240 | 8.0 | 16.1 | 0.00 | 4.95 | 3.56 | 69 | 974.9 |
| 20260831085023 | 17 | 225 | 9.7 | 17.7 | 0.00 | 4.95 | 3.56 | 69 | 975.0 |
| 20260831084523 | 17 | 227 | 6.4 | 14.5 | 0.00 | 4.95 | 3.56 | 69 | 975.0 |
| 20260831084022 | 17 | 232 | 6.4 | 12.9 | 0.00 | 4.95 | 3.56 | 69 | 974.9 |
| 20260831083522 | 17 | 225 | 6.4 | 12.9 | 0.00 | 4.95 | 3.56 | 69 | 974.9 |
| 20260831083023 | 18 | 232 | 4.8 | 12.9 | 0.00 | 4.95 | 3.56 | 69 | 974.9 |
| 20260831082523 | 18 | 225 | 6.4 | 11.3 | 0.00 | 4.95 | 3.56 | 69 | 974.8 |
| 20260831082025 | 18 | 219 | 3.2 | 12.9 | 0.00 | 4.95 | 3.56 | 69 | 974.7 |
| 20260831081522 | 18 | 232 | 8.0 | 16.1 | 0.00 | 4.95 | 3.56 | 69 | 974.8 |
| 20260831081021 | 18 | 223 | 8.0 | 16.1 | 0.00 | 4.95 | 3.56 | 69 | 974.8 |
| 20260831080521 | 18 | 240 | 3.2 | 9.7 | 0.00 | 4.95 | 3.56 | 69 | 974.9 |
| 20260831080024 | 18 | 209 | 3.2 | 8.0 | 0.00 | 4.95 | 3.56 | 69 | 974.8 |
| 20260831075520 | 17 | 196 | 0.0 | 4.8 | 0.00 | 4.95 | 3.56 | 69 | 974.8 |
| 20260831075020 | 17 | 192 | 0.0 | 4.8 | 0.00 | 4.95 | 3.56 | 69 | 974.9 |
| 20260831074521 | 17 | 185 | 0.0 | 4.8 | 0.00 | 4.95 | 3.56 | 69 | 974.9 |
| 20260831074020 | 17 | 202 | 0.0 | 6.4 | 0.00 | 4.95 | 3.56 | 69 | 974.7 |
| 20260831073520 | 17 | 142 | 0.0 | 6.4 | 0.00 | 4.95 | 3.56 | 69 | 974.7 |
| 20260831073020 | 17 | 196 | 3.2 | 6.4 | 0.00 | 4.95 | 3.56 | 69 | 974.6 |
| 20260831072520 | 17 | 190 | 1.6 | 4.8 | 0.00 | 4.95 | 3.56 | 69 | 974.7 |
| 20260831072019 | 17 | 193 | 1.6 | 6.4 | 0.03 | 4.95 | 3.56 | 69 | 974.6 |
| 20260831071619 | 17 | 196 | 3.2 | 6.4 | 0.03 | 4.95 | 3.56 | 69 | 974.6 |
| 20260831071018 | 17 | 194 | 3.2 | 6.4 | 0.08 | 4.95 | 3.56 | 69 | 974.7 |
| 20260831070520 | 17 | 192 | 1.6 | 6.4 | 0.13 | 4.95 | 3.56 | 69 | 974.7 |
| 20260831070018 | 17 | 209 | 1.6 | 4.8 | 0.18 | 4.95 | 3.56 | 69 | 974.6 |
| 20260831065521 | 17 | 170 | 1.6 | 3.2 | 0.20 | 4.95 | 3.56 | 69 | 974.5 |
| 20260831065016 | 17 | 167 | 0.0 | 3.2 | 0.20 | 4.95 | 3.56 | 69 | 974.4 |
| 20260831064517 | 17 | 171 | 0.0 | 8.0 | 0.23 | 4.95 | 3.56 | 69 | 974.5 |
| 20260831064018 | 17 | 123 | 1.6 | 11.3 | 0.25 | 4.95 | 3.56 | 69 | 974.3 |
| 20260831063516 | 17 | 143 | 3.2 | 11.3 | 0.30 | 4.95 | 3.56 | 69 | 974.3 |
| 20260831063016 | 17 | 102 | 4.8 | 11.3 | 0.41 | 4.95 | 3.56 | 69 | 974.3 |
| 20260831062517 | 17 | 134 | 4.8 | 11.3 | 0.71 | 4.95 | 3.56 | 68 | 974.4 |
| 20260831062015 | 17 | 150 | 1.6 | 11.3 | 1.12 | 4.93 | 3.53 | 68 | 973.7 |
| 20260831061514 | 17 | 98 | 3.2 | 11.3 | 1.52 | 4.93 | 3.53 | 68 | 973.1 |
| 20260831061011 | 18 | 96 | 0.0 | 4.8 | 2.41 | 4.85 | 3.45 | 68 | 974.0 |
| 20260831060511 | 18 | 96 | 0.0 | 6.4 | 3.12 | 4.83 | 3.43 | 68 | 974.0 |
| 20260831060009 | 18 | 96 | 1.6 | 6.4 | 3.38 | 4.78 | 3.38 | 68 | 974.1 |
| 20260831055508 | 18 | 138 | 0.0 | 8.0 | 3.58 | 4.75 | 3.35 | 68 | 974.5 |
| 20260831055007 | 18 | 360 | 3.2 | 8.0 | 3.96 | 4.75 | 3.35 | 68 | 974.8 |
| 20260831054506 | 18 | 140 | 4.8 | 11.3 | 4.32 | 4.72 | 3.33 | 67 | 975.0 |
| 20260831054008 | 18 | 114 | 3.2 | 12.9 | 4.67 | 4.70 | 3.30 | 67 | 975.3 |
| 20260831053509 | 18 | 194 | 3.2 | 25.7 | 4.65 | 4.65 | 3.25 | 67 | 975.6 |
| 20260831053011 | 18 | 219 | 3.2 | 25.7 | 4.50 | 4.50 | 3.10 | 67 | 975.9 |
| 20260831052503 | 18 | 217 | 9.7 | 17.7 | 4.14 | 4.14 | 2.74 | 66 | 976.3 |
| 20260831052004 | 19 | 205 | 8.0 | 19.3 | 3.73 | 3.73 | 2.34 | 66 | 977.1 |
| 20260831051501 | 19 | 123 | 9.7 | 20.9 | 3.17 | 3.17 | 1.78 | 65 | 977.2 |
| 20260831051101 | 19 | 167 | 11.3 | 20.9 | 2.57 | 2.57 | 1.17 | 65 | 976.9 |
| 20260831050559 | 19 | 150 | 3.2 | 20.9 | 1.75 | 1.75 | 0.36 | 63 | 975.6 |
| 20260831050056 | 19 | 144 | 14.5 | 20.9 | 1.42 | 1.42 | 0.05 | 61 | 975.0 |
| 20260831045556 | 20 | 108 | 11.3 | 19.3 | 1.19 | 1.19 | 1.19 | 58 | 975.4 |
| 20260831045059 | 20 | 106 | 8.0 | 19.3 | 0.84 | 0.84 | 0.84 | 57 | 975.2 |
| 20260831044613 | 20 | 105 | 9.7 | 17.7 | 0.48 | 0.48 | 0.48 | 55 | 975.3 |
| 20260831044056 | 20 | 151 | 6.4 | 19.3 | 0.05 | 0.05 | 0.05 | 54 | 975.3 |
| 20260831043556 | 21 | 123 | 9.7 | 22.5 | 0.00 | 0.00 | 0.00 | 54 | 975.2 |
| 20260831043054 | 21 | 126 | 11.3 | 22.5 | 0.00 | 0.00 | 0.00 | 53 | 975.3 |
| 20260831042557 | 21 | 121 | 11.3 | 19.3 | 0.00 | 0.00 | 0.00 | 53 | 975.2 |
| 20260831042057 | 21 | 163 | 12.9 | 19.3 | 0.00 | 0.00 | 0.00 | 53 | 975.4 |
| 20260831041600 | 21 | 360 | 11.3 | 19.3 | 0.00 | 0.00 | 0.00 | 53 | 975.4 |
| 20260831041053 | 21 | 101 | 11.3 | 20.9 | 0.00 | 0.00 | 0.00 | 53 | 975.4 |
| 20260831040552 | 21 | 91 | 11.3 | 20.9 | 0.00 | 0.00 | 0.00 | 53 | 975.6 |
| 20260831040050 | 21 | 158 | 11.3 | 20.9 | 0.00 | 0.00 | 0.00 | 53 | 975.9 |
| 20260831035550 | 21 | 112 | 9.7 | 19.3 | 0.00 | 0.00 | 0.00 | 53 | 976.0 |
| 20260831035050 | 21 | 105 | 11.3 | 24.1 | 0.00 | 0.00 | 0.00 | 52 | 976.0 |
| 20260831034555 | 21 | 183 | 14.5 | 24.1 | 0.00 | 0.00 | 0.00 | 52 | 976.1 |
| 20260831034050 | 21 | 140 | 12.9 | 25.7 | 0.00 | 0.00 | 0.00 | 52 | 976.2 |
| 20260831033550 | 21 | 127 | 12.9 | 25.7 | 0.00 | 0.00 | 0.00 | 52 | 976.2 |
| 20260831033053 | 21 | 100 | 16.1 | 30.6 | 0.00 | 0.00 | 0.00 | 52 | 976.2 |
| 20260831032550 | 21 | 113 | 16.1 | 30.6 | 0.00 | 0.00 | 0.00 | 52 | 976.1 |
| 20260831032050 | 21 | 106 | 12.9 | 22.5 | 0.00 | 0.00 | 0.00 | 52 | 976.1 |
| 20260831031549 | 21 | 127 | 12.9 | 24.1 | 0.00 | 0.00 | 0.00 | 52 | 976.0 |
| 20260831031047 | 22 | 126 | 11.3 | 22.5 | 0.00 | 0.00 | 0.00 | 52 | 976.2 |
| 20260831030547 | 22 | 105 | 12.9 | 24.1 | 0.00 | 0.00 | 0.00 | 51 | 976.3 |
| 20260831030047 | 22 | 98 | 12.9 | 24.1 | 0.00 | 0.00 | 0.00 | 51 | 976.3 |
| 20260831025547 | 22 | 128 | 14.5 | 22.5 | 0.00 | 0.00 | 0.00 | 52 | 976.3 |
| 20260831025046 | 22 | 128 | 9.7 | 17.7 | 0.00 | 0.00 | 0.00 | 52 | 976.4 |
| 20260831024546 | 21 | 114 | 8.0 | 17.7 | 0.00 | 0.00 | 0.00 | 52 | 976.6 |
| 20260831024047 | 21 | 126 | 8.0 | 17.7 | 0.00 | 0.00 | 0.00 | 52 | 976.7 |
| 20260831023546 | 21 | 144 | 9.7 | 16.1 | 0.00 | 0.00 | 0.00 | 52 | 976.7 |
| 20260831023046 | 21 | 360 | 9.7 | 16.1 | 0.00 | 0.00 | 0.00 | 52 | 976.7 |
| 20260831022546 | 21 | 101 | 8.0 | 14.5 | 0.00 | 0.00 | 0.00 | 52 | 976.8 |
| 20260831022046 | 21 | 109 | 8.0 | 12.9 | 0.00 | 0.00 | 0.00 | 52 | 976.8 |
| 20260831021546 | 21 | 113 | 6.4 | 12.9 | 0.00 | 0.00 | 0.00 | 52 | 976.7 |
| 20260831021045 | 21 | 92 | 3.2 | 11.3 | 0.00 | 0.00 | 0.00 | 52 | 976.7 |
| 20260831020544 | 22 | 146 | 4.8 | 14.5 | 0.00 | 0.00 | 0.00 | 52 | 976.7 |
| 20260831020045 | 22 | 360 | 4.8 | 14.5 | 0.00 | 0.00 | 0.00 | 52 | 976.5 |
| 20260831015544 | 22 | 134 | 6.4 | 16.1 | 0.00 | 0.00 | 0.00 | 52 | 976.6 |
| 20260831015044 | 22 | 115 | 4.8 | 11.3 | 0.00 | 0.00 | 0.00 | 52 | 976.5 |
| 20260831014544 | 22 | 100 | 6.4 | 11.3 | 0.00 | 0.00 | 0.00 | 52 | 976.5 |
| 20260831014045 | 22 | 103 | 6.4 | 11.3 | 0.00 | 0.00 | 0.00 | 52 | 976.5 |
| 20260831013545 | 22 | 98 | 8.0 | 12.9 | 0.00 | 0.00 | 0.00 | 52 | 976.6 |
| 20260831013045 | 22 | 144 | 4.8 | 12.9 | 0.00 | 0.00 | 0.00 | 52 | 976.6 |
| 20260831012545 | 22 | 118 | 4.8 | 14.5 | 0.00 | 0.00 | 0.00 | 52 | 976.4 |
| 20260831012043 | 22 | 107 | 3.2 | 14.5 | 0.00 | 0.00 | 0.00 | 53 | 976.4 |
| 20260831011545 | 22 | 360 | 4.8 | 9.7 | 0.00 | 0.00 | 0.00 | 53 | 976.4 |
| 20260831011142 | 22 | 114 | 4.8 | 9.7 | 0.00 | 0.00 | 0.00 | 54 | 976.5 |
| 20260831010542 | 23 | 132 | 3.2 | 9.7 | 0.00 | 0.00 | 0.00 | 54 | 976.4 |
| 20260831010045 | 23 | 104 | 1.6 | 11.3 | 0.00 | 0.00 | 0.00 | 54 | 976.4 |
| 20260831005541 | 23 | 126 | 3.2 | 16.1 | 0.00 | 0.00 | 0.00 | 53 | 976.5 |
| 20260831005043 | 23 | 146 | 3.2 | 16.1 | 0.00 | 0.00 | 0.00 | 53 | 976.7 |
| 20260831004541 | 23 | 96 | 4.8 | 11.3 | 0.00 | 0.00 | 0.00 | 53 | 976.8 |
| 20260831004044 | 24 | 105 | 4.8 | 14.5 | 0.00 | 0.00 | 0.00 | 53 | 976.9 |
| 20260831003541 | 24 | 360 | 3.2 | 14.5 | 0.00 | 0.00 | 0.00 | 53 | 976.8 |
| 20260831003041 | 24 | 109 | 4.8 | 12.9 | 0.00 | 0.00 | 0.00 | 53 | 976.9 |
| 20260831002540 | 24 | 90 | 4.8 | 12.9 | 0.00 | 0.00 | 0.00 | 53 | 976.9 |
| 20260831002041 | 25 | 98 | 6.4 | 12.9 | 0.00 | 0.00 | 0.00 | 52 | 976.9 |
| 20260831001541 | 25 | 85 | 4.8 | 11.3 | 0.00 | 0.00 | 0.00 | 52 | 977.0 |
| 20260831001039 | 25 | 88 | 3.2 | 14.5 | 0.00 | 0.00 | 0.00 | 52 | 976.9 |
| 20260831000540 | 25 | 186 | 6.4 | 14.5 | 0.00 | 0.00 | 0.00 | 52 | 977.0 |
| 20260831000041 | 25 | 103 | 4.8 | 16.1 | 0.00 | 0.00 | 0.00 | 51 | 977.0 |
| 20260830235544 | 25 | 82 | 4.8 | 12.9 | 0.00 | 0.00 | 0.00 | 51 | 976.8 |
| 20260830235039 | 25 | 90 | 4.8 | 11.3 | 0.00 | 0.00 | 0.00 | 51 | 976.8 |
| 20260830234554 | 25 | 90 | 4.8 | 12.9 | 0.00 | 0.00 | 0.00 | 50 | 976.9 |
| 20260830234039 | 25 | 103 | 3.2 | 16.1 | 0.00 | 0.00 | 0.00 | 50 | 977.1 |
| 20260830233539 | 26 | 87 | 6.4 | 17.7 | 0.00 | 0.00 | 0.00 | 49 | 977.1 |
| 20260830233039 | 26 | 94 | 4.8 | 14.5 | 0.00 | 0.00 | 0.00 | 49 | 977.0 |
| 20260830232539 | 26 | 98 | 4.8 | 14.5 | 0.00 | 0.00 | 0.00 | 49 | 976.9 |
| 20260830232039 | 26 | 98 | 4.8 | 14.5 | 0.00 | 0.00 | 0.00 | 49 | 976.9 |
| 20260830231538 | 26 | 84 | 4.8 | 14.5 | 0.00 | 0.00 | 0.00 | 49 | 976.9 |
| 20260830231037 | 26 | 109 | 4.8 | 14.5 | 0.00 | 0.00 | 0.00 | 48 | 976.9 |
| 20260830230537 | 26 | 105 | 3.2 | 16.1 | 0.00 | 0.00 | 0.00 | 49 | 976.9 |
| 20260830230037 | 26 | 102 | 8.0 | 19.3 | 0.00 | 0.00 | 0.00 | 48 | 976.8 |
| 20260830225537 | 26 | 106 | 9.7 | 19.3 | 0.00 | 0.00 | 0.00 | 47 | 976.7 |
| 20260830225037 | 26 | 183 | 4.8 | 16.1 | 0.00 | 0.00 | 0.00 | 48 | 976.6 |
| 20260830224536 | 26 | 116 | 6.4 | 16.1 | 0.00 | 0.00 | 0.00 | 48 | 976.9 |
| 20260830224035 | 26 | 124 | 8.0 | 17.7 | 0.00 | 0.00 | 0.00 | 47 | 977.0 |
| 20260830223534 | 26 | 117 | 9.7 | 17.7 | 0.00 | 0.00 | 0.00 | 47 | 977.2 |
| 20260830223038 | 26 | 84 | 8.0 | 14.5 | 0.00 | 0.00 | 0.00 | 48 | 977.4 |
| 20260830222533 | 26 | 131 | 4.8 | 14.5 | 0.00 | 0.00 | 0.00 | 48 | 977.5 |
| 20260830222035 | 26 | 113 | 3.2 | 9.7 | 0.00 | 0.00 | 0.00 | 48 | 977.6 |
| 20260830221536 | 26 | 91 | 3.2 | 11.3 | 0.00 | 0.00 | 0.00 | 47 | 977.7 |
| 20260830221033 | 26 | 95 | 4.8 | 17.7 | 0.00 | 0.00 | 0.00 | 46 | 977.8 |
| 20260830220530 | 26 | 88 | 6.4 | 17.7 | 0.00 | 0.00 | 0.00 | 46 | 977.9 |
| 20260830220030 | 27 | 114 | 6.4 | 17.7 | 0.00 | 0.00 | 0.00 | 46 | 978.0 |
| 20260830215529 | 27 | 150 | 6.4 | 22.5 | 0.00 | 0.00 | 0.00 | 45 | 978.1 |
| 20260830215033 | 27 | 159 | 12.9 | 20.9 | 0.00 | 0.00 | 0.00 | 45 | 978.1 |
| 20260830214529 | 26 | 111 | 12.9 | 24.1 | 0.00 | 0.00 | 0.00 | 45 | 978.3 |
| 20260830214028 | 26 | 100 | 14.5 | 24.1 | 0.00 | 0.00 | 0.00 | 46 | 978.4 |
| 20260830213527 | 26 | 104 | 11.3 | 20.9 | 0.00 | 0.00 | 0.00 | 45 | 978.3 |
| 20260830213027 | 26 | 360 | 9.7 | 24.1 | 0.00 | 0.00 | 0.00 | 45 | 978.4 |
| 20260830212527 | 27 | 86 | 12.9 | 24.1 | 0.00 | 0.00 | 0.00 | 44 | 978.3 |
| 20260830212026 | 27 | 86 | 14.5 | 24.1 | 0.00 | 0.00 | 0.00 | 44 | 978.4 |
| 20260830211527 | 26 | 132 | 12.9 | 24.1 | 0.00 | 0.00 | 0.00 | 43 | 978.6 |
| 20260830211026 | 26 | 91 | 11.3 | 29.0 | 0.00 | 0.00 | 0.00 | 44 | 978.7 |
| 20260830210525 | 27 | 97 | 16.1 | 29.0 | 0.00 | 0.00 | 0.00 | 42 | 978.6 |
| 20260830210024 | 27 | 93 | 12.9 | 27.4 | 0.00 | 0.00 | 0.00 | 44 | 978.7 |
| 20260830205523 | 27 | 90 | 14.5 | 27.4 | 0.00 | 0.00 | 0.00 | 42 | 978.8 |
| 20260830205024 | 27 | 96 | 11.3 | 25.7 | 0.00 | 0.00 | 0.00 | 43 | 978.9 |
| 20260830204522 | 27 | 108 | 14.5 | 24.1 | 0.00 | 0.00 | 0.00 | 42 | 978.9 |
| 20260830204022 | 27 | 101 | 12.9 | 25.7 | 0.00 | 0.00 | 0.00 | 42 | 979.1 |
| 20260830203521 | 27 | 109 | 12.9 | 25.7 | 0.00 | 0.00 | 0.00 | 42 | 979.0 |
| 20260830203041 | 27 | 116 | 16.1 | 25.7 | 0.00 | 0.00 | 0.00 | 43 | 979.0 |
| 20260830202520 | 27 | 104 | 14.5 | 24.1 | 0.00 | 0.00 | 0.00 | 45 | 979.0 |
| 20260830202019 | 27 | 102 | 12.9 | 24.1 | 0.00 | 0.00 | 0.00 | 47 | 979.1 |
| 20260830201518 | 27 | 107 | 12.9 | 24.1 | 0.00 | 0.00 | 0.00 | 46 | 979.2 |
| 20260830201017 | 26 | 102 | 12.9 | 20.9 | 0.00 | 0.00 | 0.00 | 46 | 979.2 |
| 20260830200516 | 26 | 115 | 12.9 | 20.9 | 0.00 | 0.00 | 0.00 | 46 | 979.3 |
| 20260830200019 | 26 | 98 | 11.3 | 19.3 | 0.00 | 0.00 | 0.00 | 46 | 979.4 |
| 20260830195516 | 26 | 107 | 9.7 | 25.7 | 0.00 | 0.00 | 0.00 | 47 | 979.4 |
| 20260830195016 | 26 | 102 | 14.5 | 25.7 | 0.00 | 0.00 | 0.00 | 46 | 979.5 |
| 20260830194516 | 26 | 98 | 14.5 | 22.5 | 0.00 | 0.00 | 0.00 | 45 | 979.5 |
| 20260830194016 | 27 | 69 | 14.5 | 27.4 | 0.00 | 0.00 | 0.00 | 44 | 979.5 |
| 20260830193515 | 27 | 126 | 12.9 | 27.4 | 0.00 | 0.00 | 0.00 | 45 | 979.5 |
| 20260830193015 | 27 | 91 | 16.1 | 22.5 | 0.00 | 0.00 | 0.00 | 45 | 979.5 |
| 20260830192515 | 27 | 360 | 12.9 | 25.7 | 0.00 | 0.00 | 0.00 | 45 | 979.6 |
| 20260830192015 | 27 | 95 | 12.9 | 25.7 | 0.00 | 0.00 | 0.00 | 45 | 979.6 |
| 20260830191515 | 27 | 360 | 12.9 | 30.6 | 0.00 | 0.00 | 0.00 | 45 | 979.6 |
| 20260830191014 | 27 | 141 | 16.1 | 30.6 | 0.00 | 0.00 | 0.00 | 45 | 979.6 |
| 20260830190513 | 27 | 135 | 14.5 | 27.4 | 0.00 | 0.00 | 0.00 | 46 | 979.6 |
| 20260830190024 | 27 | 109 | 14.5 | 27.4 | 0.00 | 0.00 | 0.00 | 46 | 979.5 |
| 20260830185513 | 27 | 124 | 12.9 | 25.7 | 0.00 | 0.00 | 0.00 | 47 | 979.5 |
| 20260830185013 | 27 | 107 | 16.1 | 27.4 | 0.00 | 0.00 | 0.00 | 45 | 979.7 |
| 20260830184522 | 27 | 115 | 12.9 | 24.1 | 0.00 | 0.00 | 0.00 | 48 | 979.6 |
| 20260830184011 | 27 | 360 | 11.3 | 22.5 | 0.00 | 0.00 | 0.00 | 47 | 979.8 |
| 20260830183510 | 27 | 114 | 9.7 | 17.7 | 0.00 | 0.00 | 0.00 | 48 | 979.7 |
| 20260830183019 | 27 | 360 | 9.7 | 22.5 | 0.00 | 0.00 | 0.00 | 47 | 979.8 |
| 20260830182511 | 27 | 96 | 8.0 | 22.5 | 0.00 | 0.00 | 0.00 | 49 | 979.8 |
| 20260830182008 | 26 | 100 | 4.8 | 19.3 | 0.00 | 0.00 | 0.00 | 50 | 979.8 |
| 20260830181507 | 26 | 115 | 14.5 | 19.3 | 0.00 | 0.00 | 0.00 | 49 | 979.9 |
| 20260830181005 | 26 | 85 | 11.3 | 19.3 | 0.00 | 0.00 | 0.00 | 50 | 979.9 |
| 20260830180505 | 26 | 78 | 8.0 | 20.9 | 0.00 | 0.00 | 0.00 | 50 | 979.9 |
| 20260830180004 | 26 | 80 | 9.7 | 27.4 | 0.00 | 0.00 | 0.00 | 51 | 980.0 |
| 20260830175503 | 26 | 360 | 17.7 | 27.4 | 0.00 | 0.00 | 0.00 | 41 | 980.1 |
| 20260830175002 | 26 | 102 | 12.9 | 25.7 | 0.00 | 0.00 | 0.00 | 42 | 980.2 |
| 20260830174502 | 26 | 360 | 12.9 | 25.7 | 0.00 | 0.00 | 0.00 | 43 | 980.2 |
| 20260830174100 | 26 | 97 | 17.7 | 25.7 | 0.00 | 0.00 | 0.00 | 43 | 980.2 |
| 20260830173559 | 25 | 103 | 9.7 | 20.9 | 0.00 | 0.00 | 0.00 | 46 | 980.1 |
| 20260830173114 | 25 | 96 | 14.5 | 22.5 | 0.00 | 0.00 | 0.00 | 45 | 980.3 |
| 20260830172557 | 25 | 136 | 8.0 | 22.5 | 0.00 | 0.00 | 0.00 | 45 | 980.4 |
| 20260830172057 | 25 | 100 | 6.4 | 17.7 | 0.00 | 0.00 | 0.00 | 46 | 980.5 |
| 20260830171601 | 25 | 95 | 11.3 | 22.5 | 0.00 | 0.00 | 0.00 | 45 | 980.5 |
| 20260830171056 | 25 | 94 | 9.7 | 25.7 | 0.00 | 0.00 | 0.00 | 45 | 980.7 |
| 20260830170556 | 26 | 93 | 11.3 | 22.5 | 0.00 | 0.00 | 0.00 | 45 | 980.7 |
| 20260830170056 | 26 | 104 | 6.4 | 19.3 | 0.00 | 0.00 | 0.00 | 46 | 980.7 |
| 20260830165555 | 26 | 114 | 8.0 | 19.3 | 0.00 | 0.00 | 0.00 | 45 | 980.7 |
| 20260830165055 | 25 | 97 | 8.0 | 20.9 | 0.00 | 0.00 | 0.00 | 46 | 980.7 |
| 20260830164553 | 25 | 98 | 11.3 | 20.9 | 0.00 | 0.00 | 0.00 | 46 | 980.6 |
| 20260830164056 | 25 | 94 | 8.0 | 25.7 | 0.00 | 0.00 | 0.00 | 46 | 980.8 |
| 20260830163554 | 25 | 94 | 9.7 | 17.7 | 0.00 | 0.00 | 0.00 | 47 | 980.9 |
| 20260830163052 | 25 | 136 | 8.0 | 25.7 | 0.00 | 0.00 | 0.00 | 48 | 981.0 |
| 20260830162552 | 25 | 80 | 16.1 | 25.7 | 0.00 | 0.00 | 0.00 | 46 | 981.1 |
| 20260830162051 | 25 | 90 | 14.5 | 25.7 | 0.00 | 0.00 | 0.00 | 48 | 981.0 |
| 20260830161550 | 25 | 115 | 4.8 | 17.7 | 0.00 | 0.00 | 0.00 | 50 | 980.9 |
| 20260830161051 | 25 | 134 | 9.7 | 17.7 | 0.00 | 0.00 | 0.00 | 50 | 981.0 |
| 20260830160548 | 25 | 360 | 9.7 | 20.9 | 0.00 | 0.00 | 0.00 | 49 | 981.0 |
| 20260830160047 | 25 | 145 | 4.8 | 20.9 | 0.00 | 0.00 | 0.00 | 51 | 981.0 |
| 20260830155546 | 24 | 84 | 9.7 | 20.9 | 0.00 | 0.00 | 0.00 | 50 | 981.1 |
| 20260830155049 | 24 | 140 | 9.7 | 17.7 | 0.00 | 0.00 | 0.00 | 52 | 981.2 |
| 20260830154545 | 24 | 104 | 8.0 | 16.1 | 0.00 | 0.00 | 0.00 | 51 | 981.2 |
| 20260830154041 | 23 | 116 | 8.0 | 16.1 | 0.00 | 0.00 | 0.00 | 53 | 981.3 |
| 20260830153540 | 23 | 360 | 8.0 | 16.1 | 0.00 | 0.00 | 0.00 | 54 | 981.6 |
| 20260830153040 | 23 | 134 | 9.7 | 16.1 | 0.00 | 0.00 | 0.00 | 55 | 981.7 |
| 20260830152539 | 23 | 104 | 8.0 | 16.1 | 0.00 | 0.00 | 0.00 | 55 | 981.5 |
| 20260830152039 | 23 | 360 | 8.0 | 17.7 | 0.00 | 0.00 | 0.00 | 56 | 981.4 |
| 20260830151537 | 22 | 155 | 9.7 | 17.7 | 0.00 | 0.00 | 0.00 | 57 | 981.4 |
| 20260830151036 | 22 | 128 | 8.0 | 12.9 | 0.00 | 0.00 | 0.00 | 59 | 981.6 |
| 20260830150534 | 22 | 129 | 3.2 | 11.3 | 0.00 | 0.00 | 0.00 | 61 | 981.7 |
| 20260830150036 | 22 | 145 | 3.2 | 16.1 | 0.00 | 0.00 | 0.00 | 61 | 981.6 |
| 20260830145532 | 21 | 100 | 6.4 | 16.1 | 0.00 | 0.00 | 0.00 | 62 | 981.6 |
| 20260830145031 | 21 | 124 | 6.4 | 14.5 | 0.00 | 0.00 | 0.00 | 63 | 981.7 |
| 20260830144535 | 21 | 130 | 4.8 | 14.5 | 0.00 | 0.00 | 0.00 | 63 | 981.9 |
| 20260830144027 | 21 | 115 | 8.0 | 12.9 | 0.00 | 0.00 | 0.00 | 64 | 981.8 |
| 20260830143526 | 21 | 87 | 4.8 | 12.9 | 0.00 | 0.00 | 0.00 | 65 | 981.7 |
| 20260830143035 | 20 | 123 | 4.8 | 11.3 | 0.00 | 0.00 | 0.00 | 66 | 981.6 |
| 20260830142524 | 20 | 143 | 3.2 | 11.3 | 0.00 | 0.00 | 0.00 | 66 | 981.6 |
| 20260830142022 | 20 | 128 | 4.8 | 11.3 | 0.00 | 0.00 | 0.00 | 67 | 981.6 |
| 20260830141521 | 20 | 113 | 3.2 | 11.3 | 0.00 | 0.00 | 0.00 | 67 | 981.5 |
| 20260830141021 | 20 | 144 | 3.2 | 11.3 | 0.00 | 0.00 | 0.00 | 67 | 981.5 |
| 20260830140517 | 19 | 360 | 3.2 | 11.3 | 0.00 | 0.00 | 0.00 | 68 | 981.4 |
| 20260830140017 | 19 | 360 | 4.8 | 11.3 | 0.00 | 0.00 | 0.00 | 68 | 981.6 |
| 20260830135516 | 19 | 128 | 4.8 | 11.3 | 0.00 | 0.00 | 0.00 | 69 | 981.5 |
| 20260830135015 | 18 | 158 | 3.2 | 8.0 | 0.00 | 0.00 | 0.00 | 69 | 981.4 |
| 20260830134522 | 18 | 92 | 3.2 | 9.7 | 0.00 | 0.00 | 0.00 | 69 | 981.4 |
| 20260830134015 | 18 | 98 | 4.8 | 9.7 | 0.00 | 0.00 | 0.00 | 69 | 981.5 |
| 20260830133514 | 18 | 129 | 3.2 | 4.8 | 0.00 | 0.00 | 0.00 | 69 | 981.4 |
| 20260830133013 | 18 | 95 | 1.6 | 6.4 | 0.00 | 0.00 | 0.00 | 69 | 981.5 |
| 20260830132513 | 18 | 132 | 1.6 | 9.7 | 0.00 | 0.00 | 0.00 | 69 | 981.5 |
| 20260830132012 | 17 | 360 | 3.2 | 9.7 | 0.00 | 0.00 | 0.00 | 69 | 981.6 |
| 20260830131527 | 17 | 103 | 1.6 | 9.7 | 0.00 | 0.00 | 0.00 | 69 | 981.7 |
| 20260830131012 | 17 | 128 | 3.2 | 9.7 | 0.00 | 0.00 | 0.00 | 69 | 981.7 |
| 20260830130512 | 17 | 105 | 3.2 | 9.7 | 0.00 | 0.00 | 0.00 | 69 | 981.6 |
| 20260830130011 | 17 | 110 | 3.2 | 9.7 | 0.00 | 0.00 | 0.00 | 69 | 981.7 |
| 20260830125511 | 17 | 126 | 1.6 | 6.4 | 0.00 | 0.00 | 0.00 | 70 | 981.6 |
| 20260830125011 | 16 | 86 | 0.0 | 3.2 | 0.00 | 0.00 | 0.00 | 70 | 981.7 |
| 20260830124511 | 16 | 83 | 0.0 | 1.6 | 0.00 | 0.00 | 0.00 | 70 | 981.5 |
| 20260830124013 | 16 | 83 | 0.0 | 1.6 | 0.00 | 0.00 | 0.00 | 69 | 981.7 |
| 20260830123511 | 15 | 83 | 0.0 | 0.0 | 0.00 | 0.00 | 0.00 | 69 | 981.6 |
| 20260830123010 | 15 | 83 | 0.0 | 0.0 | 0.00 | 0.00 | 0.00 | 69 | 981.6 |
| 20260830122510 | 15 | 83 | 0.0 | 0.0 | 0.00 | 0.00 | 0.00 | 69 | 981.5 |
| 20260830122010 | 15 | 83 | 0.0 | 0.0 | 0.00 | 0.00 | 0.00 | 69 | 981.5 |
| 20260830121510 | 15 | 83 | 0.0 | 3.2 | 0.00 | 0.00 | 0.00 | 69 | 981.4 |
| 20260830121009 | 15 | 83 | 0.0 | 3.2 | 0.00 | 0.00 | 0.00 | 69 | 981.5 |
| 20260830120509 | 15 | 83 | 0.0 | 1.6 | 0.00 | 0.00 | 0.00 | 69 | 981.5 |
| 20260830120011 | 15 | 83 | 0.0 | 1.6 | 0.00 | 0.00 | 0.00 | 69 | 981.4 |
| 20260830115508 | 15 | 83 | 0.0 | 1.6 | 0.00 | 0.00 | 0.00 | 69 | 981.5 |
| 20260830115008 | 15 | 83 | 0.0 | 0.0 | 0.00 | 0.00 | 0.00 | 69 | 981.4 |
| 20260830114508 | 15 | 83 | 0.0 | 1.6 | 0.00 | 0.00 | 0.00 | 69 | 981.3 |
| 20260830114006 | 15 | 83 | 0.0 | 1.6 | 0.00 | 0.00 | 0.00 | 69 | 981.3 |
| 20260830113505 | 16 | 83 | 0.0 | 1.6 | 0.00 | 0.00 | 0.00 | 69 | 981.2 |
| 20260830113004 | 16 | 83 | 0.0 | 0.0 | 0.00 | 0.00 | 0.00 | 69 | 981.2 |
| 20260830112504 | 16 | 83 | 0.0 | 0.0 | 0.00 | 0.00 | 0.00 | 68 | 981.1 |
| 20260830112004 | 16 | 83 | 0.0 | 0.0 | 0.00 | 0.00 | 0.00 | 69 | 981.1 |
| 20260830111504 | 16 | 83 | 0.0 | 3.2 | 0.00 | 0.00 | 0.00 | 69 | 981.0 |
| 20260830111003 | 16 | 83 | 0.0 | 3.2 | 0.00 | 0.00 | 0.00 | 69 | 981.0 |
| 20260830110502 | 16 | 82 | 0.0 | 0.0 | 0.00 | 0.00 | 0.00 | 69 | 980.8 |
| 20260830110003 | 16 | 82 | 0.0 | 0.0 | 0.00 | 0.00 | 0.00 | 69 | 980.8 |
| 20260830105502 | 16 | 82 | 0.0 | 0.0 | 0.00 | 0.00 | 0.00 | 69 | 980.8 |
| 20260830105004 | 16 | 82 | 0.0 | 0.0 | 0.00 | 0.00 | 0.00 | 69 | 980.7 |
| 20260830104502 | 16 | 82 | 0.0 | 1.6 | 0.00 | 0.00 | 0.00 | 69 | 980.7 |
| 20260830104004 | 16 | 82 | 0.0 | 1.6 | 0.00 | 0.00 | 0.00 | 69 | 980.7 |
| 20260830103502 | 16 | 82 | 0.0 | 0.0 | 0.00 | 0.00 | 0.00 | 68 | 980.7 |
| 20260830103002 | 16 | 82 | 0.0 | 0.0 | 0.00 | 0.00 | 0.00 | 68 | 980.8 |
| 20260830102600 | 16 | 82 | 0.0 | 0.0 | 0.00 | 0.00 | 0.00 | 68 | 980.7 |
| 20260830102103 | 16 | 82 | 0.0 | 1.6 | 0.00 | 0.00 | 0.00 | 68 | 980.8 |
| 20260830101600 | 16 | 82 | 0.0 | 1.6 | 0.00 | 0.00 | 0.00 | 68 | 981.0 |
| 20260830101059 | 16 | 82 | 0.0 | 3.2 | 0.00 | 0.00 | 0.00 | 68 | 981.0 |
| 20260830100600 | 16 | 82 | 0.0 | 3.2 | 0.00 | 0.00 | 0.00 | 68 | 981.0 |
| 20260830100108 | 16 | 82 | 0.0 | 3.2 | 0.00 | 0.00 | 0.00 | 68 | 981.0 |
| 20260830095602 | 16 | 82 | 0.0 | 3.2 | 0.00 | 0.00 | 0.00 | 68 | 981.0 |
| 20260830095058 | 16 | 81 | 0.0 | 3.2 | 0.00 | 0.00 | 0.00 | 68 | 981.0 |
| 20260830094558 | 16 | 81 | 0.0 | 3.2 | 0.00 | 0.00 | 0.00 | 67 | 981.1 |
| 20260830094056 | 16 | 81 | 0.0 | 3.2 | 0.00 | 0.00 | 0.00 | 68 | 981.0 |
| 20260830093555 | 17 | 80 | 0.0 | 1.6 | 0.00 | 0.00 | 0.00 | 68 | 981.0 |
| 20260830093102 | 17 | 81 | 0.0 | 3.2 | 0.00 | 0.00 | 0.00 | 67 | 981.1 |